Temp_Advection
nan nan nan nan nan nan nan nan nan nan nan nan nan nan nan nan nan nan nan nan nan nan
nan -1 -1 -1 -1 -1 -1 -0 -0 -2 -1 1 -1 -1 0 0 0 1 1 1 0 nan
nan -1 -1 -1 -1 -1 -0 -0 -1 -2 -0 1 0 0 -0 1 1 0 0 0 0 nan
nan -0 0 0 -0 -0 -0 0 0 -0 -0 1 1 1 0 1 0 0 0 0 0 nan
nan 0 2 2 3 2 1 1 2 1 -2 0 0 3 1 1 3 0 0 0 0 nan
nan -0 1 5 3 3 3 1 1 1 1 0 -1 1 4 2 2 2 1 1 0 nan
nan -0 0 3 6 4 3 2 0 0 1 1 -1 -0 1 1 -0 2 2 1 1 nan
nan -1 0 4 4 3 2 0 1 0 -1 1 -0 -1 0 0 0 0 0 0 1 nan
nan 2 2 2 2 3 4 4 -0 -2 -0 -2 -3 0 2 0 -0 -0 -0 -0 0 nan
nan 1 0 1 2 0 1 1 1 -1 -2 -2 -1 1 0 -0 -0 -0 -0 -0 0 nan
nan -1 -1 -1 -1 -1 0 2 1 -2 -1 -2 -1 0 -0 -0 0 0 -1 -1 -0 nan
nan -1 -2 -1 -0 1 2 0 -2 -1 1 -0 -0 0 0 -0 -0 -1 -1 -0 -0 nan
nan -1 -1 0 1 1 0 0 1 0 -1 -1 -1 -1 -1 -1 -0 -1 -1 -1 -1 nan
nan nan nan nan nan nan nan nan nan nan nan nan nan nan nan nan nan nan nan nan nan nan
Wind_Speed
20 23 26 24 27 32 32 34 25 29 32 31 39 55 54 55 51 50 48 45 42 41
17 16 19 20 19 24 21 20 22 23 31 41 33 50 54 52 49 51 44 42 42 42
15 11 9 17 19 14 19 22 22 20 23 18 38 55 54 50 48 42 45 39 40 39
20 4 3 9 19 16 19 15 9 4 14 20 20 37 48 46 41 41 39 36 35 33
31 24 19 21 26 26 25 23 22 18 25 9 21 23 45 38 39 41 39 35 34 34
37 33 32 35 33 36 33 31 29 24 20 8 15 17 26 30 23 32 30 29 26 25
41 40 39 42 45 41 36 32 36 35 29 28 20 19 25 17 12 18 18 13 11 6
42 44 44 50 52 49 45 43 41 31 25 31 26 25 20 16 14 11 17 13 10 9
39 41 46 47 48 49 48 45 46 44 41 43 32 28 27 21 18 19 18 18 14 11
43 43 44 43 45 46 47 44 42 42 35 30 31 28 28 22 21 21 19 17 16 14
41 40 39 40 40 40 43 43 43 39 33 32 31 28 26 24 25 24 23 21 20 18
36 36 35 36 36 38 38 40 40 36 33 32 31 29 26 24 24 24 24 22 21 20
31 35 35 34 37 36 35 35 32 32 31 27 25 25 24 23 22 23 21 20 20 19
29 31 32 33 33 33 33 33 34 33 30 28 26 26 23 23 22 22 20 20 20 19
Wind_Direction
296 281 279 274 271 264 261 265 280 279 267 252 267 222 226 225 219 217 216 222 221 223
308 288 275 267 256 255 249 253 256 275 279 256 265 218 219 223 224 220 223 219 221 225
334 306 274 255 241 228 225 222 232 253 274 315 224 215 218 219 223 220 218 220 222 225
25 38 110 175 221 210 190 167 165 213 237 264 213 205 206 212 219 224 224 225 226 229
39 60 81 102 119 154 161 143 109 82 47 176 207 170 198 197 209 215 214 218 221 224
38 48 59 89 95 95 101 108 103 107 91 81 25 124 156 175 157 193 196 198 195 207
47 45 55 68 85 91 96 97 93 88 95 104 92 70 87 119 114 112 154 162 215 172
52 53 54 67 75 75 77 78 81 86 90 83 77 71 62 88 96 77 89 95 120 123
55 58 58 59 66 73 76 76 73 71 71 69 69 73 77 74 72 75 75 83 69 51
44 49 52 56 59 61 64 68 72 68 68 71 64 60 60 61 61 61 61 59 57 51
42 45 47 52 56 60 62 64 68 71 71 73 69 65 62 60 61 62 61 62 61 63
42 46 48 51 54 57 57 56 57 58 57 54 54 52 54 50 53 53 50 46 44 42
42 42 45 48 50 51 54 57 54 52 50 46 44 44 43 39 40 41 39 36 35 36
38 40 41 44 45 48 50 50 48 48 46 42 38 39 36 35 32 32 26 27 27 25
Height
1383 1378 1377 1376 1378 1379 1383 1388 1392 1397 1398 1402 1404 1410 1415 1424 1430 1432 1438 1444 1449 1453
1378 1372 1370 1370 1371 1372 1377 1384 1386 1387 1383 1387 1385 1388 1408 1417 1422 1427 1431 1436 1442 1446
1375 1369 1365 1366 1367 1368 1372 1377 1381 1380 1381 1374 1380 1381 1398 1409 1417 1424 1429 1430 1435 1440
1377 1370 1368 1364 1363 1364 1368 1372 1373 1379 1381 1384 1383 1388 1388 1401 1409 1419 1424 1426 1428 1433
1386 1375 1371 1365 1362 1361 1363 1367 1364 1369 1372 1381 1379 1372 1385 1394 1402 1412 1412 1417 1419 1423
1394 1384 1379 1367 1365 1360 1363 1364 1366 1368 1374 1385 1389 1390 1373 1390 1401 1402 1405 1408 1410 1413
1404 1392 1385 1376 1367 1365 1364 1366 1369 1373 1382 1385 1394 1393 1380 1392 1400 1387 1396 1403 1405 1403
1404 1405 1394 1380 1373 1377 1375 1375 1372 1377 1385 1387 1392 1394 1395 1395 1401 1398 1393 1401 1408 1408
1424 1414 1402 1396 1393 1389 1388 1385 1377 1386 1393 1384 1411 1412 1402 1403 1407 1400 1401 1404 1405 1401
1425 1419 1415 1409 1405 1399 1391 1385 1386 1382 1400 1412 1413 1412 1410 1411 1409 1403 1403 1406 1405 1400
1438 1432 1429 1426 1421 1415 1410 1406 1399 1406 1416 1414 1419 1418 1416 1419 1415 1413 1416 1413 1414 1414
1453 1448 1444 1438 1433 1425 1420 1410 1411 1415 1418 1417 1420 1421 1420 1425 1423 1419 1418 1419 1415 1410
1460 1454 1452 1447 1438 1431 1427 1425 1427 1422 1420 1426 1428 1428 1426 1425 1422 1420 1422 1420 1417 1416
1462 1460 1457 1451 1445 1442 1436 1428 1426 1426 1430 1435 1436 1431 1431 1426 1424 1425 1427 1424 1422 1421